Location: Ferchesar
(52.6477°N, 12.4298°E)
Time: 04:38:44
(UTC+01:00)

Tiros 1 - Pass Details

Date: 05 December 2021
Orbit: 629 x 664 km, 48.4° (Epoch: 21 January)

Event Time Altitude Azimuth Distance (km) Brightness Sun altitude
Rises 21:55:26 0° 270° (W) 2,940 - -51.5°
Reaches altitude 10° 21:57:49 10° 264° (W) 2,036 - -51.7°
Maximum altitude 22:02:16 45° 193° (SSW) 884 - -52.3°
Drops below altitude 10° 22:06:47 10° 121° (ESE) 2,054 - -52.8°
Sets 22:09:12 0° 115° (ESE) 2,970 - -53.0°
